| time (UTC) | temp F | wind direction | speed MPH | gust MPH | rain 1hr in | rain 24hr in | rain mn in | humidity % | barometer mb |
| 20260508144523 | 60 | 117 | 1.0 | 4.0 | 0.00 | 0.00 | 0.00 | 31 | 1008.0 |
| 20260508143017 | 59 | 105 | 0.0 | 4.0 | 0.00 | 0.00 | 0.00 | 32 | 1008.1 |
| 20260508141522 | 57 | 124 | 1.0 | 3.0 | 0.00 | 0.00 | 0.00 | 33 | 1008.0 |
| 20260508140011 | 57 | 103 | 2.0 | 5.0 | 0.00 | 0.00 | 0.00 | 32 | 1007.7 |
| 20260508134512 | 56 | 103 | 3.0 | 6.0 | 0.00 | 0.00 | 0.00 | 33 | 1007.8 |
| 20260508133008 | 56 | 108 | 2.0 | 5.0 | 0.00 | 0.00 | 0.00 | 32 | 1007.7 |
| 20260508131503 | 56 | 120 | 2.0 | 7.0 | 0.00 | 0.00 | 0.00 | 32 | 1007.3 |
| 20260508130001 | 56 | 120 | 2.0 | 6.0 | 0.00 | 0.00 | 0.00 | 32 | 1007.3 |
| 20260508124604 | 56 | 121 | 3.0 | 7.0 | 0.00 | 0.00 | 0.00 | 31 | 1007.3 |
| 20260508123057 | 57 | 124 | 1.0 | 4.0 | 0.00 | 0.00 | 0.00 | 30 | 1007.1 |
| 20260508121556 | 57 | 115 | 0.0 | 5.0 | 0.00 | 0.00 | 0.00 | 31 | 1006.8 |
| 20260508120053 | 57 | 121 | 1.0 | 4.0 | 0.00 | 0.00 | 0.00 | 30 | 1006.9 |
| 20260508114551 | 58 | 122 | 1.0 | 6.0 | 0.00 | 0.00 | 0.00 | 30 | 1006.9 |
| 20260508113049 | 58 | 127 | 2.0 | 6.0 | 0.00 | 0.00 | 0.00 | 31 | 1006.8 |
| 20260508111546 | 58 | 117 | 2.0 | 5.0 | 0.00 | 0.00 | 0.00 | 33 | 1006.7 |
| 20260508110043 | 58 | 101 | 2.0 | 8.0 | 0.00 | 0.00 | 0.00 | 33 | 1006.7 |
| 20260508104540 | 57 | 106 | 2.0 | 7.0 | 0.00 | 0.00 | 0.00 | 35 | 1006.9 |
| 20260508103038 | 57 | 122 | 2.0 | 5.0 | 0.00 | 0.00 | 0.00 | 35 | 1006.9 |
| 20260508101535 | 57 | 115 | 2.0 | 6.0 | 0.00 | 0.00 | 0.00 | 35 | 1006.8 |
| 20260508100033 | 57 | 117 | 2.0 | 5.0 | 0.00 | 0.00 | 0.00 | 37 | 1006.7 |
| 20260508094530 | 57 | 106 | 2.0 | 8.0 | 0.00 | 0.00 | 0.00 | 37 | 1006.9 |
| 20260508093029 | 57 | 101 | 2.0 | 7.0 | 0.00 | 0.00 | 0.00 | 38 | 1007.0 |
| 20260508091525 | 57 | 117 | 2.0 | 5.0 | 0.00 | 0.00 | 0.00 | 38 | 1006.8 |
| 20260508090042 | 57 | 90 | 2.0 | 7.0 | 0.00 | 0.00 | 0.00 | 39 | 1007.1 |
| 20260508084520 | 57 | 107 | 1.0 | 5.0 | 0.00 | 0.00 | 0.00 | 39 | 1007.4 |
| 20260508083020 | 57 | 136 | 1.0 | 4.0 | 0.00 | 0.00 | 0.00 | 38 | 1007.4 |
| 20260508081514 | 57 | 146 | 2.0 | 5.0 | 0.00 | 0.00 | 0.00 | 37 | 1007.4 |
| 20260508080012 | 57 | 101 | 1.0 | 8.0 | 0.00 | 0.00 | 0.00 | 37 | 1007.6 |
| 20260508074508 | 57 | 101 | 1.0 | 5.0 | 0.00 | 0.00 | 0.00 | 37 | 1007.8 |
| 20260508073007 | 57 | 144 | 1.0 | 5.0 | 0.00 | 0.00 | 0.00 | 37 | 1007.7 |
| 20260508071503 | 56 | 89 | 1.0 | 6.0 | 0.00 | 0.00 | 0.00 | 41 | 1007.6 |
| 20260508070056 | 56 | 111 | 4.0 | 6.0 | 0.00 | 0.00 | 0.00 | 45 | 1007.9 |
| 20260508064604 | 56 | 95 | 0.0 | 2.0 | 0.00 | 0.00 | 0.00 | 48 | 1007.8 |
| 20260508063107 | 56 | 95 | 1.0 | 4.0 | 0.00 | 0.00 | 0.00 | 46 | 1007.7 |
| 20260508061559 | 56 | 115 | 1.0 | 5.0 | 0.00 | 0.00 | 0.00 | 44 | 1007.8 |
| 20260508054646 | 56 | 115 | 4.0 | 7.0 | 0.00 | 0.00 | 0.00 | 37 | 1008.2 |
| 20260508053044 | 57 | 119 | 4.0 | 9.0 | 0.00 | 0.00 | 0.00 | 36 | 1008.3 |
| 20260508051556 | 57 | 102 | 4.0 | 14.0 | 0.00 | 0.00 | 0.00 | 34 | 1008.5 |
| 20260508050038 | 57 | 123 | 4.0 | 9.0 | 0.00 | 0.00 | 0.00 | 34 | 1008.6 |
| 20260508044540 | 57 | 122 | 3.0 | 12.0 | 0.00 | 0.00 | 0.00 | 35 | 1008.6 |
| 20260508043034 | 57 | 150 | 1.0 | 12.0 | 0.00 | 0.00 | 0.00 | 35 | 1008.4 |
| 20260508041530 | 57 | 115 | 2.0 | 9.0 | 0.00 | 0.00 | 0.00 | 36 | 1008.3 |
| 20260508040029 | 57 | 107 | 3.0 | 11.0 | 0.00 | 0.00 | 0.00 | 36 | 1008.2 |
| 20260508034539 | 57 | 93 | 3.0 | 10.0 | 0.00 | 0.00 | 0.00 | 36 | 1008.0 |
| 20260508033024 | 56 | 108 | 2.0 | 9.0 | 0.00 | 0.00 | 0.00 | 37 | 1008.0 |
| 20260508031523 | 56 | 107 | 2.0 | 8.0 | 0.00 | 0.00 | 0.00 | 37 | 1007.8 |
| 20260508030022 | 56 | 143 | 2.0 | 7.0 | 0.00 | 0.00 | 0.00 | 40 | 1007.8 |
| 20260508024545 | 57 | 78 | 3.0 | 9.0 | 0.00 | 0.00 | 0.00 | 41 | 1007.5 |
| 20260508023017 | 58 | 106 | 3.0 | 9.0 | 0.00 | 0.00 | 0.00 | 43 | 1007.3 |
| 20260508021519 | 59 | 91 | 2.0 | 8.0 | 0.00 | 0.00 | 0.00 | 47 | 1007.5 |
| 20260508020012 | 59 | 97 | 3.0 | 9.0 | 0.00 | 0.00 | 0.00 | 49 | 1007.1 |
| 20260508014510 | 60 | 115 | 4.0 | 12.0 | 0.00 | 0.00 | 0.00 | 44 | 1007.2 |
| 20260508013008 | 60 | 115 | 6.0 | 15.0 | 0.00 | 0.00 | 0.00 | 40 | 1007.5 |
| 20260508011505 | 61 | 84 | 5.0 | 16.0 | 0.00 | 0.00 | 0.00 | 46 | 1007.2 |
| 20260508010007 | 62 | 102 | 9.0 | 17.0 | 0.00 | 0.00 | 0.00 | 46 | 1007.0 |
| 20260508004602 | 62 | 105 | 8.0 | 18.0 | 0.00 | 0.00 | 0.00 | 46 | 1007.2 |
| 20260508003058 | 63 | 84 | 8.0 | 14.0 | 0.00 | 0.00 | 0.00 | 44 | 1007.0 |
| 20260508001556 | 63 | 110 | 9.0 | 18.0 | 0.00 | 0.00 | 0.00 | 42 | 1007.2 |
| 20260508000054 | 64 | 96 | 9.0 | 16.0 | 0.00 | 0.00 | 0.00 | 41 | 1007.3 |
| 20260507234553 | 64 | 105 | 10.0 | 18.0 | 0.00 | 0.00 | 0.00 | 42 | 1007.0 |
| 20260507233047 | 64 | 111 | 10.0 | 18.0 | 0.00 | 0.00 | 0.00 | 42 | 1007.3 |
| 20260507231545 | 65 | 89 | 6.0 | 16.0 | 0.00 | 0.00 | 0.00 | 39 | 1007.6 |
| 20260507230050 | 64 | 104 | 10.0 | 18.0 | 0.00 | 0.00 | 0.00 | 38 | 1007.4 |
| 20260507224536 | 63 | 113 | 6.0 | 16.0 | 0.00 | 0.00 | 0.00 | 38 | 1007.6 |
| 20260507223034 | 65 | 106 | 8.0 | 14.0 | 0.00 | 0.00 | 0.00 | 39 | 1007.8 |
| 20260507221539 | 64 | 87 | 8.0 | 18.0 | 0.00 | 0.00 | 0.00 | 37 | 1007.8 |
| 20260507220027 | 64 | 72 | 7.0 | 19.0 | 0.00 | 0.00 | 0.00 | 36 | 1008.1 |
| 20260507214523 | 64 | 105 | 8.0 | 15.0 | 0.00 | 0.00 | 0.00 | 38 | 1008.2 |
| 20260507213027 | 64 | 103 | 5.0 | 11.0 | 0.00 | 0.00 | 0.00 | 41 | 1008.6 |
| 20260507211518 | 64 | 75 | 6.0 | 19.0 | 0.00 | 0.00 | 0.00 | 40 | 1008.6 |
| 20260507210016 | 63 | 75 | 7.0 | 14.0 | 0.00 | 0.00 | 0.00 | 38 | 1008.9 |
| 20260507204511 | 64 | 83 | 7.0 | 13.0 | 0.00 | 0.00 | 0.00 | 40 | 1009.1 |
| 20260507203007 | 63 | 100 | 4.0 | 16.0 | 0.00 | 0.00 | 0.00 | 42 | 1008.9 |
| 20260507201506 | 64 | 79 | 6.0 | 13.0 | 0.00 | 0.00 | 0.00 | 40 | 1009.0 |
| 20260507200002 | 64 | 111 | 5.0 | 11.0 | 0.00 | 0.00 | 0.00 | 35 | 1009.2 |
| 20260507194619 | 65 | 92 | 5.0 | 11.0 | 0.00 | 0.00 | 0.00 | 33 | 1009.2 |
| 20260507193059 | 64 | 96 | 4.0 | 10.0 | 0.00 | 0.00 | 0.00 | 32 | 1009.4 |
| 20260507191553 | 64 | 86 | 5.0 | 14.0 | 0.00 | 0.00 | 0.00 | 33 | 1009.6 |
| 20260507190056 | 64 | 92 | 4.0 | 11.0 | 0.00 | 0.00 | 0.00 | 30 | 1009.6 |
| 20260507184550 | 63 | 79 | 5.0 | 11.0 | 0.00 | 0.00 | 0.00 | 30 | 1009.8 |
| 20260507183045 | 64 | 90 | 4.0 | 11.0 | 0.00 | 0.00 | 0.00 | 30 | 1010.3 |
| 20260507181543 | 63 | 91 | 4.0 | 10.0 | 0.00 | 0.00 | 0.00 | 31 | 1010.2 |
| 20260507180042 | 63 | 92 | 1.0 | 8.0 | 0.00 | 0.00 | 0.00 | 28 | 1010.4 |
| 20260507174544 | 63 | 112 | 4.0 | 8.0 | 0.00 | 0.00 | 0.00 | 27 | 1010.5 |
| 20260507173107 | 63 | 68 | 2.0 | 7.0 | 0.00 | 0.00 | 0.00 | 27 | 1010.5 |
| 20260507171539 | 63 | 98 | 2.0 | 8.0 | 0.00 | 0.00 | 0.00 | 28 | 1010.3 |
| 20260507170037 | 62 | 108 | 2.0 | 6.0 | 0.00 | 0.00 | 0.00 | 28 | 1010.3 |
| 20260507164533 | 63 | 69 | 2.0 | 6.0 | 0.00 | 0.00 | 0.00 | 29 | 1010.5 |
| 20260507163028 | 63 | 77 | 0.0 | 7.0 | 0.00 | 0.00 | 0.00 | 31 | 1010.5 |
| 20260507161523 | 64 | 39 | 0.0 | 6.0 | 0.00 | 0.00 | 0.00 | 30 | 1010.6 |
| 20260507160019 | 63 | 269 | 1.0 | 4.0 | 0.00 | 0.00 | 0.00 | 25 | 1010.6 |
| 20260507154515 | 63 | 351 | 2.0 | 6.0 | 0.00 | 0.00 | 0.00 | 27 | 1010.6 |
| 20260507153013 | 62 | 91 | 0.0 | 3.0 | 0.00 | 0.00 | 0.00 | 28 | 1011.0 |
| 20260507151509 | 61 | 104 | 3.0 | 5.0 | 0.00 | 0.00 | 0.00 | 28 | 1010.9 |
| 20260507150006 | 60 | 102 | 1.0 | 4.0 | 0.00 | 0.00 | 0.00 | 28 | 1010.9 |